SENTINEL-5P

Last updated on Thu Oct 30 2025 00:02:32 GMT+0000 (Coordinated Universal Time)

1 42969U 17064A 25302.43080839 .00000148 00000+0 90974-4 0 9990 2 42969 98.7707 241.4241 0001125 78.2658 281.8644 14.19500138416829
UTC large
Height (km)
Speed (km/s)
/
Latitude / Longitude
Inclination (degrees)
Orbital Period (minutes)
Azimuth
Elevation
Range (km)
Doppler Factor

Next 0 passes for location: London (51.5072 / 0.1276)

Sorry there are no passes over London.